Time,TemperatureF,DewpointF,PressureIn,WindDirection,WindDirectionDegrees,WindSpeedMPH,WindSpeedGustMPH,Humidity,HourlyPrecipIn,Conditions,Clouds,dailyrainin,SolarRadiationWatts/m^2,SoftwareType,DateUTC
2013-01-04 00:06:00,7.6,2.7,30.10,WSW,253,2.0,7.0,80,0.00,,,0.00,0,Wunderground v.1.15,2013-01-04 06:06:00,
2013-01-04 00:11:00,7.6,2.7,30.09,WSW,247,1.0,1.0,80,0.00,,,0.00,0,Wunderground v.1.15,2013-01-04 06:11:00,
2013-01-04 00:21:00,7.7,3.1,30.08,West,274,4.0,4.0,81,0.00,,,0.00,0,Wunderground v.1.15,2013-01-04 06:21:00,
2013-01-04 00:31:00,7.9,3.5,30.08,WSW,251,5.0,5.0,82,0.00,,,0.00,0,Wunderground v.1.15,2013-01-04 06:31:00,
2013-01-04 00:36:00,8.1,3.7,30.07,SW,225,3.0,5.0,82,0.00,,,0.00,0,Wunderground v.1.15,2013-01-04 06:36:00,
2013-01-04 00:46:00,8.4,4.0,30.06,SW,234,6.0,6.0,82,0.00,,,0.00,0,Wunderground v.1.15,2013-01-04 06:46:00,
2013-01-04 00:56:00,8.7,4.6,30.06,SW,229,5.0,5.0,83,0.00,,,0.00,0,Wunderground v.1.15,2013-01-04 06:56:00,
2013-01-04 01:06:00,8.9,4.8,30.06,WSW,243,4.0,6.0,83,0.00,,,0.00,0,Wunderground v.1.15,2013-01-04 07:06:00,
2013-01-04 01:11:00,9.1,5.2,30.07,West,259,3.0,3.0,84,0.00,,,0.00,0,Wunderground v.1.15,2013-01-04 07:11:00,
2013-01-04 01:21:00,9.5,5.6,30.06,WSW,247,6.0,6.0,84,0.00,,,0.00,0,Wunderground v.1.15,2013-01-04 07:21:00,
2013-01-04 01:31:00,9.5,5.6,30.06,West,281,7.0,7.0,84,0.00,,,0.00,0,Wunderground v.1.15,2013-01-04 07:31:00,
2013-01-04 01:41:00,9.6,5.7,30.05,WSW,243,5.0,5.0,84,0.00,,,0.00,0,Wunderground v.1.15,2013-01-04 07:41:00,
2013-01-04 01:51:00,9.5,5.6,30.04,WSW,249,5.0,5.0,84,0.00,,,0.00,0,Wunderground v.1.15,2013-01-04 07:51:00,
2013-01-04 02:01:00,9.6,5.7,30.05,West,260,5.0,8.0,84,0.00,,,0.00,0,Wunderground v.1.15,2013-01-04 08:01:00,
2013-01-04 02:06:00,9.6,6.0,30.05,West,268,3.0,8.0,85,0.00,,,0.00,0,Wunderground v.1.15,2013-01-04 08:06:00,
2013-01-04 02:16:00,9.7,6.1,30.04,WSW,252,7.0,7.0,85,0.00,,,0.00,0,Wunderground v.1.15,2013-01-04 08:16:00,
2013-01-04 02:26:00,10.0,6.4,30.03,West,262,3.0,6.0,85,0.00,,,0.00,0,Wunderground v.1.15,2013-01-04 08:26:00,
2013-01-04 02:36:00,10.2,6.6,30.03,West,274,5.0,5.0,85,0.00,,,0.00,0,Wunderground v.1.15,2013-01-04 08:36:00,
2013-01-04 02:46:00,10.5,7.1,30.03,West,267,5.0,5.0,86,0.00,,,0.00,0,Wunderground v.1.15,2013-01-04 08:46:00,
2013-01-04 02:56:00,10.8,7.4,30.02,WSW,249,7.0,7.0,86,0.00,,,0.00,0,Wunderground v.1.15,2013-01-04 08:56:00,
2013-01-04 03:06:00,10.9,7.3,30.02,WSW,250,6.0,6.0,85,0.00,,,0.00,0,Wunderground v.1.15,2013-01-04 09:06:00,
2013-01-04 03:16:00,10.9,7.5,30.02,SW,222,4.0,4.0,86,0.00,,,0.00,0,Wunderground v.1.15,2013-01-04 09:16:00,
2013-01-04 03:21:00,11.1,7.7,30.02,WNW,283,4.0,4.0,86,0.00,,,0.00,0,Wunderground v.1.15,2013-01-04 09:21:00,
2013-01-04 03:31:00,11.2,7.8,30.02,WSW,256,1.0,1.0,86,0.00,,,0.00,0,Wunderground v.1.15,2013-01-04 09:31:00,
2013-01-04 03:41:00,11.3,7.7,30.01,WSW,252,8.0,8.0,85,0.00,,,0.00,0,Wunderground v.1.15,2013-01-04 09:41:00,
2013-01-04 03:51:00,11.3,7.7,30.00,WSW,258,2.0,2.0,85,0.00,,,0.00,0,Wunderground v.1.15,2013-01-04 09:51:00,
2013-01-04 04:01:00,11.5,8.1,30.00,West,260,4.0,10.0,86,0.00,,,0.00,0,Wunderground v.1.15,2013-01-04 10:01:00,
2013-01-04 04:06:00,11.7,8.3,30.00,WNW,288,4.0,10.0,86,0.00,,,0.00,0,Wunderground v.1.15,2013-01-04 10:06:00,
2013-01-04 04:16:00,12.2,8.8,30.00,West,268,3.0,5.0,86,0.00,,,0.00,0,Wunderground v.1.15,2013-01-04 10:16:00,
2013-01-04 04:21:00,12.2,8.6,30.00,West,269,4.0,4.0,85,0.00,,,0.00,0,Wunderground v.1.15,2013-01-04 10:21:00,
2013-01-04 04:31:00,12.3,8.7,30.01,West,270,3.0,3.0,85,0.00,,,0.00,0,Wunderground v.1.15,2013-01-04 10:31:00,
2013-01-04 04:41:00,11.9,8.0,30.01,West,270,2.0,2.0,84,0.00,,,0.00,0,Wunderground v.1.15,2013-01-04 10:41:00,
2013-01-04 04:46:00,11.6,7.7,30.01,West,270,1.0,2.0,84,0.00,,,0.00,0,Wunderground v.1.15,2013-01-04 10:46:00,
2013-01-04 04:56:00,11.2,7.6,30.01,West,270,0.0,1.0,85,0.00,,,0.00,0,Wunderground v.1.15,2013-01-04 10:56:00,
2013-01-04 05:06:00,10.9,7.3,30.01,West,270,1.0,10.0,85,0.00,,,0.00,0,Wunderground v.1.15,2013-01-04 11:06:00,
2013-01-04 05:16:00,10.7,7.3,30.00,West,270,1.0,1.0,86,0.00,,,0.00,0,Wunderground v.1.15,2013-01-04 11:16:00,
2013-01-04 05:26:00,10.7,7.3,30.00,WSW,241,0.0,2.0,86,0.00,,,0.00,0,Wunderground v.1.15,2013-01-04 11:26:00,
2013-01-04 05:36:00,10.6,7.2,29.99,SW,228,1.0,1.0,86,0.00,,,0.00,0,Wunderground v.1.15,2013-01-04 11:36:00,
2013-01-04 05:46:00,10.6,7.2,29.99,SW,216,4.0,4.0,86,0.00,,,0.00,0,Wunderground v.1.15,2013-01-04 11:46:00,
2013-01-04 05:56:00,10.6,7.2,29.99,WSW,245,4.0,4.0,86,0.00,,,0.00,0,Wunderground v.1.15,2013-01-04 11:56:00,
2013-01-04 06:06:00,10.9,7.5,29.99,SW,229,3.0,3.0,86,0.00,,,0.00,0,Wunderground v.1.15,2013-01-04 12:06:00,
2013-01-04 06:16:00,11.5,8.4,30.00,WSW,253,3.0,3.0,87,0.00,,,0.00,0,Wunderground v.1.15,2013-01-04 12:16:00,
2013-01-04 06:21:00,11.6,8.5,29.99,WSW,256,5.0,5.0,87,0.00,,,0.00,0,Wunderground v.1.15,2013-01-04 12:21:00,
2013-01-04 06:31:00,12.1,9.0,29.99,WSW,251,5.0,5.0,87,0.00,,,0.00,0,Wunderground v.1.15,2013-01-04 12:31:00,
2013-01-04 06:41:00,12.6,9.5,29.99,West,261,2.0,2.0,87,0.00,,,0.00,0,Wunderground v.1.15,2013-01-04 12:41:00,
2013-01-04 06:51:00,12.6,9.2,29.99,WSW,246,1.0,1.0,86,0.00,,,0.00,0,Wunderground v.1.15,2013-01-04 12:51:00,
2013-01-04 07:01:00,12.6,9.2,29.99,SW,229,5.0,5.0,86,0.00,,,0.00,0,Wunderground v.1.15,2013-01-04 13:01:00,
2013-01-04 07:06:00,12.6,9.2,30.00,WSW,249,2.0,5.0,86,0.00,,,0.00,0,Wunderground v.1.15,2013-01-04 13:06:00,
2013-01-04 07:16:00,12.6,9.2,29.99,SW,224,5.0,5.0,86,0.00,,,0.00,0,Wunderground v.1.15,2013-01-04 13:16:00,
2013-01-04 07:26:00,12.6,9.2,29.98,WSW,241,2.0,5.0,86,0.00,,,0.00,0,Wunderground v.1.15,2013-01-04 13:26:00,
2013-01-04 07:36:00,12.7,9.3,29.99,West,265,5.0,5.0,86,0.00,,,0.00,0,Wunderground v.1.15,2013-01-04 13:36:00,
2013-01-04 07:41:00,12.9,9.5,30.00,WSW,248,5.0,5.0,86,0.00,,,0.00,0,Wunderground v.1.15,2013-01-04 13:41:00,
2013-01-04 07:51:00,13.6,10.2,29.98,West,261,3.0,3.0,86,0.00,,,0.00,0,Wunderground v.1.15,2013-01-04 13:51:00,
2013-01-04 08:01:00,13.8,10.1,29.99,WSW,240,4.0,5.0,85,0.00,,,0.00,0,Wunderground v.1.15,2013-01-04 14:01:00,
2013-01-04 08:11:00,13.9,10.2,30.00,West,271,1.0,1.0,85,0.00,,,0.00,0,Wunderground v.1.15,2013-01-04 14:11:00,
2013-01-04 08:21:00,14.6,10.9,30.00,West,263,2.0,2.0,85,0.00,,,0.00,0,Wunderground v.1.15,2013-01-04 14:21:00,
2013-01-04 08:31:00,15.2,11.2,30.00,WSW,237,3.0,3.0,84,0.00,,,0.00,0,Wunderground v.1.15,2013-01-04 14:31:00,
2013-01-04 08:36:00,15.7,11.7,30.00,WSW,253,2.0,3.0,84,0.00,,,0.00,0,Wunderground v.1.15,2013-01-04 14:36:00,
2013-01-04 08:46:00,17.0,12.7,30.00,WNW,283,5.0,5.0,83,0.00,,,0.00,0,Wunderground v.1.15,2013-01-04 14:46:00,
2013-01-04 08:56:00,17.9,13.1,30.00,WNW,290,6.0,6.0,81,0.00,,,0.00,0,Wunderground v.1.15,2013-01-04 14:56:00,
2013-01-04 09:06:00,18.6,13.5,30.00,West,267,3.0,5.0,80,0.00,,,0.00,0,Wunderground v.1.15,2013-01-04 15:06:00,
2013-01-04 09:11:00,19.0,13.6,29.99,West,261,5.0,5.0,79,0.00,,,0.00,0,Wunderground v.1.15,2013-01-04 15:11:00,
2013-01-04 09:21:00,19.7,14.2,30.00,WSW,258,3.0,3.0,79,0.00,,,0.00,0,Wunderground v.1.15,2013-01-04 15:21:00,
2013-01-04 09:31:00,20.3,14.2,30.01,WNW,297,10.0,10.0,77,0.00,,,0.00,0,Wunderground v.1.15,2013-01-04 15:31:00,
2013-01-04 09:41:00,20.6,14.5,30.01,WNW,292,7.0,7.0,77,0.00,,,0.00,0,Wunderground v.1.15,2013-01-04 15:41:00,
2013-01-04 09:46:00,20.7,14.3,30.02,NW,314,4.0,7.0,76,0.00,,,0.00,0,Wunderground v.1.15,2013-01-04 15:46:00,
2013-01-04 09:56:00,20.7,14.3,30.02,WNW,291,7.0,9.0,76,0.00,,,0.00,0,Wunderground v.1.15,2013-01-04 15:56:00,
2013-01-04 10:06:00,20.8,14.4,30.02,West,281,5.0,11.0,76,0.00,,,0.00,0,Wunderground v.1.15,2013-01-04 16:06:00,
2013-01-04 10:11:00,20.9,14.5,30.03,WNW,297,5.0,5.0,76,0.00,,,0.00,0,Wunderground v.1.15,2013-01-04 16:11:00,
2013-01-04 10:21:00,21.3,14.9,30.03,WNW,297,5.0,5.0,76,0.00,,,0.00,0,Wunderground v.1.15,2013-01-04 16:21:00,
2013-01-04 10:31:00,22.0,15.3,30.03,WNW,290,7.0,7.0,75,0.00,,,0.00,0,Wunderground v.1.15,2013-01-04 16:31:00,
2013-01-04 10:41:00,22.5,15.8,30.02,WNW,291,6.0,6.0,75,0.00,,,0.00,0,Wunderground v.1.15,2013-01-04 16:41:00,
2013-01-04 10:51:00,22.9,15.8,30.02,West,278,7.0,7.0,74,0.00,,,0.00,0,Wunderground v.1.15,2013-01-04 16:51:00,
2013-01-04 11:01:00,23.4,16.0,30.02,WNW,290,8.0,10.0,73,0.00,,,0.00,0,Wunderground v.1.15,2013-01-04 17:01:00,
2013-01-04 11:11:00,23.8,16.4,30.02,WNW,286,6.0,6.0,73,0.00,,,0.00,0,Wunderground v.1.15,2013-01-04 17:11:00,
2013-01-04 11:21:00,24.2,16.8,30.02,WNW,289,8.0,8.0,73,0.00,,,0.00,0,Wunderground v.1.15,2013-01-04 17:21:00,
2013-01-04 11:31:00,24.7,16.6,30.02,WNW,295,13.0,13.0,71,0.00,,,0.00,0,Wunderground v.1.15,2013-01-04 17:31:00,
2013-01-04 11:41:00,25.1,17.0,30.01,WNW,294,8.0,8.0,71,0.00,,,0.00,0,Wunderground v.1.15,2013-01-04 17:41:00,
2013-01-04 11:51:00,25.4,17.0,30.01,WNW,290,8.0,8.0,70,0.00,,,0.00,0,Wunderground v.1.15,2013-01-04 17:51:00,
2013-01-04 12:01:00,25.8,17.4,30.02,WNW,294,7.0,11.0,70,0.00,,,0.00,0,Wunderground v.1.15,2013-01-04 18:01:00,
2013-01-04 12:06:00,26.1,17.6,30.01,West,279,8.0,11.0,70,0.00,,,0.00,0,Wunderground v.1.15,2013-01-04 18:06:00,
2013-01-04 12:16:00,26.5,17.4,30.01,West,271,5.0,5.0,68,0.00,,,0.00,0,Wunderground v.1.15,2013-01-04 18:16:00,
2013-01-04 12:26:00,26.8,17.6,30.02,WNW,293,7.0,7.0,68,0.00,,,0.00,0,Wunderground v.1.15,2013-01-04 18:26:00,
2013-01-04 12:36:00,27.0,17.8,30.01,WNW,299,4.0,9.0,68,0.00,,,0.00,0,Wunderground v.1.15,2013-01-04 18:36:00,
2013-01-04 12:46:00,27.3,17.8,30.02,WNW,286,6.0,8.0,67,0.00,,,0.00,0,Wunderground v.1.15,2013-01-04 18:46:00,
2013-01-04 12:56:00,27.6,17.7,30.01,WNW,285,7.0,7.0,66,0.00,,,0.00,0,Wunderground v.1.15,2013-01-04 18:56:00,
2013-01-04 13:01:00,27.7,18.2,30.01,WNW,287,7.0,11.0,67,0.00,,,0.00,0,Wunderground v.1.15,2013-01-04 19:01:00,
2013-01-04 13:11:00,27.9,19.0,30.01,WNW,289,6.0,6.0,69,0.00,,,0.00,0,Wunderground v.1.15,2013-01-04 19:11:00,
2013-01-04 13:21:00,28.1,19.2,30.01,West,279,3.0,3.0,69,0.00,,,0.00,0,Wunderground v.1.15,2013-01-04 19:21:00,
2013-01-04 13:31:00,28.2,19.0,30.01,WNW,294,7.0,7.0,68,0.00,,,0.00,0,Wunderground v.1.15,2013-01-04 19:31:00,
2013-01-04 13:41:00,28.4,19.2,30.01,WNW,298,7.0,7.0,68,0.00,,,0.00,0,Wunderground v.1.15,2013-01-04 19:41:00,
2013-01-04 13:51:00,28.6,19.0,30.01,WNW,287,5.0,5.0,67,0.00,,,0.00,0,Wunderground v.1.15,2013-01-04 19:51:00,
2013-01-04 14:01:00,28.8,18.5,30.02,WNW,293,5.0,8.0,65,0.00,,,0.00,0,Wunderground v.1.15,2013-01-04 20:01:00,
2013-01-04 14:06:00,28.8,18.5,30.01,WNW,295,3.0,8.0,65,0.00,,,0.00,0,Wunderground v.1.15,2013-01-04 20:06:00,
2013-01-04 14:16:00,28.8,18.5,30.02,WNW,291,9.0,9.0,65,0.00,,,0.00,0,Wunderground v.1.15,2013-01-04 20:16:00,
2013-01-04 14:26:00,28.8,18.5,30.02,WNW,282,5.0,9.0,65,0.00,,,0.00,0,Wunderground v.1.15,2013-01-04 20:26:00,
2013-01-04 14:36:00,28.7,18.4,30.01,West,274,4.0,5.0,65,0.00,,,0.00,0,Wunderground v.1.15,2013-01-04 20:36:00,
2013-01-04 14:46:00,28.7,18.4,30.02,WNW,287,8.0,8.0,65,0.00,,,0.00,0,Wunderground v.1.15,2013-01-04 20:46:00,
2013-01-04 14:56:00,28.6,18.7,30.03,WNW,282,6.0,6.0,66,0.00,,,0.00,0,Wunderground v.1.15,2013-01-04 20:56:00,
2013-01-04 15:06:00,28.4,18.5,30.03,WNW,294,5.0,8.0,66,0.00,,,0.00,0,Wunderground v.1.15,2013-01-04 21:06:00,
2013-01-04 15:16:00,28.3,18.4,30.03,WNW,285,3.0,3.0,66,0.00,,,0.00,0,Wunderground v.1.15,2013-01-04 21:16:00,
2013-01-04 15:26:00,27.9,18.4,30.04,WNW,287,3.0,4.0,67,0.00,,,0.00,0,Wunderground v.1.15,2013-01-04 21:26:00,
2013-01-04 15:36:00,27.4,17.9,30.04,WNW,291,4.0,4.0,67,0.00,,,0.00,0,Wunderground v.1.15,2013-01-04 21:36:00,
2013-01-04 15:46:00,27.2,17.7,30.04,West,275,5.0,5.0,67,0.00,,,0.00,0,Wunderground v.1.15,2013-01-04 21:46:00,
2013-01-04 15:56:00,27.0,17.5,30.04,WNW,283,4.0,4.0,67,0.00,,,0.00,0,Wunderground v.1.15,2013-01-04 21:56:00,
2013-01-04 16:06:00,26.5,17.4,30.05,West,281,5.0,9.0,68,0.00,,,0.00,0,Wunderground v.1.15,2013-01-04 22:06:00,
2013-01-04 16:16:00,25.9,16.8,30.05,West,271,3.0,3.0,68,0.00,,,0.00,0,Wunderground v.1.15,2013-01-04 22:16:00,
2013-01-04 16:26:00,25.4,16.6,30.05,West,259,3.0,3.0,69,0.00,,,0.00,0,Wunderground v.1.15,2013-01-04 22:26:00,
2013-01-04 16:36:00,24.7,16.6,30.05,WSW,251,2.0,3.0,71,0.00,,,0.00,0,Wunderground v.1.15,2013-01-04 22:36:00,
2013-01-04 16:46:00,24.6,16.5,30.06,WSW,245,4.0,4.0,71,0.00,,,0.00,0,Wunderground v.1.15,2013-01-04 22:46:00,
2013-01-04 16:56:00,24.4,16.3,30.06,West,259,3.0,3.0,71,0.00,,,0.00,0,Wunderground v.1.15,2013-01-04 22:56:00,
2013-01-04 17:06:00,24.0,16.3,30.06,West,263,4.0,7.0,72,0.00,,,0.00,0,Wunderground v.1.15,2013-01-04 23:06:00,
2013-01-04 17:16:00,23.3,15.6,30.06,WSW,254,4.0,4.0,72,0.00,,,0.00,0,Wunderground v.1.15,2013-01-04 23:16:00,
2013-01-04 17:26:00,22.9,15.5,30.07,West,262,3.0,5.0,73,0.00,,,0.00,0,Wunderground v.1.15,2013-01-04 23:26:00,
2013-01-04 17:31:00,22.6,15.2,30.07,WSW,244,4.0,4.0,73,0.00,,,0.00,0,Wunderground v.1.15,2013-01-04 23:31:00,
2013-01-04 17:41:00,22.3,15.3,30.07,WSW,244,4.0,4.0,74,0.00,,,0.00,0,Wunderground v.1.15,2013-01-04 23:41:00,
2013-01-04 17:51:00,22.3,15.3,30.07,WSW,257,5.0,5.0,74,0.00,,,0.00,0,Wunderground v.1.15,2013-01-04 23:51:00,
2013-01-04 18:01:00,22.2,15.2,30.08,WSW,248,3.0,6.0,74,0.00,,,0.00,0,Wunderground v.1.15,2013-01-05 00:01:00,
2013-01-04 18:11:00,21.9,14.9,30.07,WSW,249,5.0,5.0,74,0.00,,,0.00,0,Wunderground v.1.15,2013-01-05 00:11:00,
2013-01-04 18:21:00,21.8,15.1,30.08,WSW,256,4.0,4.0,75,0.00,,,0.00,0,Wunderground v.1.15,2013-01-05 00:21:00,
2013-01-04 18:31:00,21.5,14.8,30.07,West,259,1.0,1.0,75,0.00,,,0.00,0,Wunderground v.1.15,2013-01-05 00:31:00,
2013-01-04 18:41:00,21.3,14.6,30.07,WSW,255,2.0,2.0,75,0.00,,,0.00,0,Wunderground v.1.15,2013-01-05 00:41:00,
2013-01-04 18:51:00,21.0,14.6,30.08,WSW,252,3.0,3.0,76,0.00,,,0.00,0,Wunderground v.1.15,2013-01-05 00:51:00,
2013-01-04 19:01:00,20.7,14.3,30.08,WSW,256,3.0,6.0,76,0.00,,,0.00,0,Wunderground v.1.15,2013-01-05 01:01:00,
2013-01-04 19:11:00,20.3,13.9,30.08,WSW,256,3.0,3.0,76,0.00,,,0.00,0,Wunderground v.1.15,2013-01-05 01:11:00,
2013-01-04 19:21:00,19.9,13.9,30.08,WSW,256,2.0,2.0,77,0.00,,,0.00,0,Wunderground v.1.15,2013-01-05 01:21:00,
2013-01-04 19:31:00,19.4,13.4,30.08,WSW,256,2.0,2.0,77,0.00,,,0.00,0,Wunderground v.1.15,2013-01-05 01:31:00,
2013-01-04 19:36:00,19.3,13.3,30.08,WSW,256,3.0,3.0,77,0.00,,,0.00,0,Wunderground v.1.15,2013-01-05 01:36:00,
2013-01-04 19:46:00,19.1,13.4,30.08,WSW,256,2.0,2.0,78,0.00,,,0.00,0,Wunderground v.1.15,2013-01-05 01:46:00,
2013-01-04 19:56:00,19.1,13.4,30.07,West,261,0.0,2.0,78,0.00,,,0.00,0,Wunderground v.1.15,2013-01-05 01:56:00,
2013-01-04 20:06:00,19.0,13.6,30.07,West,261,2.0,4.0,79,0.00,,,0.00,0,Wunderground v.1.15,2013-01-05 02:06:00,
2013-01-04 20:11:00,18.8,13.1,30.08,West,261,2.0,2.0,78,0.00,,,0.00,0,Wunderground v.1.15,2013-01-05 02:11:00,
2013-01-04 20:21:00,18.6,13.2,30.08,West,261,0.0,0.0,79,0.00,,,0.00,0,Wunderground v.1.15,2013-01-05 02:21:00,
2013-01-04 20:31:00,18.3,13.2,30.08,West,261,1.0,1.0,80,0.00,,,0.00,0,Wunderground v.1.15,2013-01-05 02:31:00,
2013-01-04 20:41:00,18.0,12.9,30.09,West,261,0.0,0.0,80,0.00,,,0.00,0,Wunderground v.1.15,2013-01-05 02:41:00,
2013-01-04 20:51:00,17.6,12.5,30.09,West,261,0.0,0.0,80,0.00,,,0.00,0,Wunderground v.1.15,2013-01-05 02:51:00,
2013-01-04 21:01:00,17.3,12.5,30.09,West,261,0.0,2.0,81,0.00,,,0.00,0,Wunderground v.1.15,2013-01-05 03:01:00,
2013-01-04 21:11:00,17.1,12.3,30.08,West,261,0.0,0.0,81,0.00,,,0.00,0,Wunderground v.1.15,2013-01-05 03:11:00,
2013-01-04 21:21:00,16.8,12.0,30.08,West,261,0.0,0.0,81,0.00,,,0.00,0,Wunderground v.1.15,2013-01-05 03:21:00,
2013-01-04 21:31:00,16.5,11.7,30.09,West,261,2.0,2.0,81,0.00,,,0.00,0,Wunderground v.1.15,2013-01-05 03:31:00,
2013-01-04 21:41:00,16.0,11.2,30.09,West,261,1.0,1.0,81,0.00,,,0.00,0,Wunderground v.1.15,2013-01-05 03:41:00,
2013-01-04 21:51:00,15.6,10.8,30.09,West,261,0.0,0.0,81,0.00,,,0.00,0,Wunderground v.1.15,2013-01-05 03:51:00,
2013-01-04 22:01:00,15.1,10.9,30.09,West,261,3.0,3.0,83,0.00,,,0.00,0,Wunderground v.1.15,2013-01-05 04:01:00,
2013-01-04 22:06:00,15.0,10.8,30.10,West,259,2.0,3.0,83,0.00,,,0.00,0,Wunderground v.1.15,2013-01-05 04:06:00,
2013-01-04 22:16:00,14.7,10.5,30.09,West,259,2.0,2.0,83,0.00,,,0.00,0,Wunderground v.1.15,2013-01-05 04:16:00,
2013-01-04 22:26:00,14.5,10.5,30.10,West,259,0.0,0.0,84,0.00,,,0.00,0,Wunderground v.1.15,2013-01-05 04:26:00,
2013-01-04 22:36:00,14.4,10.4,30.10,West,259,0.0,0.0,84,0.00,,,0.00,0,Wunderground v.1.15,2013-01-05 04:36:00,
2013-01-04 22:46:00,14.4,10.4,30.10,West,259,2.0,2.0,84,0.00,,,0.00,0,Wunderground v.1.15,2013-01-05 04:46:00,
2013-01-04 22:56:00,14.1,9.9,30.10,West,259,1.0,1.0,83,0.00,,,0.00,0,Wunderground v.1.15,2013-01-05 04:56:00,
2013-01-04 23:01:00,13.9,10.0,30.10,West,266,4.0,4.0,84,0.00,,,0.00,0,Wunderground v.1.15,2013-01-05 05:01:00,
2013-01-04 23:06:00,14.0,10.1,30.11,West,266,5.0,5.0,84,0.00,,,0.00,0,Wunderground v.1.15,2013-01-05 05:06:00,
2013-01-04 23:11:00,14.0,10.1,30.10,West,267,3.0,3.0,84,0.00,,,0.00,0,Wunderground v.1.15,2013-01-05 05:11:00,
2013-01-04 23:21:00,14.1,10.2,30.10,West,269,1.0,1.0,84,0.00,,,0.00,0,Wunderground v.1.15,2013-01-05 05:21:00,
2013-01-04 23:26:00,14.1,10.2,30.10,West,269,2.0,2.0,84,0.00,,,0.00,0,Wunderground v.1.15,2013-01-05 05:26:00,
2013-01-04 23:36:00,14.1,10.2,30.10,West,269,3.0,3.0,84,0.00,,,0.00,0,Wunderground v.1.15,2013-01-05 05:36:00,
2013-01-04 23:46:00,14.2,10.3,30.10,West,264,4.0,4.0,84,0.00,,,0.00,0,Wunderground v.1.15,2013-01-05 05:46:00,
2013-01-04 23:56:00,14.2,10.3,30.11,West,266,1.0,3.0,84,0.00,,,0.00,0,Wunderground v.1.15,2013-01-05 05:56:00,